Regional Weather Roundup
Issued by NWS

Home | Current Version | Previous Version | Text Only | Print | Product List | Glossary Off
Versions: 1 2 3 4 5 6 7 8 9 10 11 12 13 14 15 16 17 18 19 20 21 22 23 24 25 26 27 28 29 30 31 32 33 34 35 36 37 38 39 40 41 42 43 44 45 46 47 48 49 50

000
ASUS43 KTOP 232108
RWRKS

WEATHER ROUNDUP FOR KANSAS
NATIONAL WEATHER SERVICE GOODLAND KS
400 PM CDT WED JUL 23 2014

NOTE:  "FAIR" INDICATES FEW OR NO CLOUDS BELOW 12,000 FEET WITH NO
SIGNIFICANT WEATHER AND/OR OBSTRUCTIONS TO VISIBILITY.

KSZ001>006-013>018-027>032-041>047-232200-
NORTHWEST KANSAS

CITY           SKY/WX    TMP DP  RH WIND       PRES   REMARKS
GOODLAND       SUNNY     90  61  37 S20G25    30.24F
HAYS           PTSUNNY   88  64  45 SE18      30.12F
HILL CITY      CLOUDY    87  63  44 SW5       30.17R
RUSSELL        PTSUNNY   87  66  49 NE14      30.14F
$$

KSZ061>065-074>080-084>089-232200-
SOUTHWEST KANSAS

CITY           SKY/WX    TMP DP  RH WIND       PRES   REMARKS
DODGE CITY     MOSUNNY   88  68  51 NE18G25   30.21F
ELKHART          N/A     94  63  35 SE14        N/A  HX  95
GARDEN CITY    MOSUNNY   85  68  56 NE20      30.22F
GREAT BEND     MOSUNNY   88  66  48 S8        30.14F
LIBERAL        SUNNY     97  57  26 SW7       30.21F HX  95
PRATT          MOSUNNY   90  68  48 NE10      30.19F
$$

KSZ066>073-081>083-090>101-232200-
SOUTHEAST KANSAS

CITY           SKY/WX    TMP DP  RH WIND       PRES   REMARKS
CHANUTE        PTSUNNY   88  72  58 NE9       30.10F
COFFEYVILLE    CLOUDY    79  72  79 NE7       30.06F
HUTCHINSON     MOSUNNY   88  65  46 E13G18    30.15F
MEDICINE LODGE   N/A     94  73  50 NE9       30.12F HX 103
NEWTON         PTSUNNY   84  63  48 NE10G18   30.20F
PARSONS        PTSUNNY   83  70  64 VRB5      30.09F
WICHITA INTL   PTSUNNY   90  66  45 NE10      30.13F
WICHITA JABRA  MOSUNNY   88  69  53 NE13      30.14F
WICHITA MCCONL MOSUNNY   88  66  47 NE15      30.15F
WINFIELD       CLOUDY    85  70  60 NE9       30.14F
$$

KSZ007>012-019>026-033>040-048>060-102>105-232200-
NORTHEAST KANSAS

CITY           SKY/WX    TMP DP  RH WIND       PRES   REMARKS
CONCORDIA      PTSUNNY   85  63  47 NE15G21   30.15F
EMPORIA        CLOUDY    87  64  46 N7        30.15F
LAWRENCE       SUNNY     88  67  49 VRB7      30.12F
MANHATTAN      MOSUNNY   90  62  39 NE7       30.13F
MARYSVILLE     MOSUNNY   86  61  42 NE5       30.17F
OLATHE IND     SUNNY     90  64  42 N10G18    30.12F
OLATHE EXE     SUNNY     87  65  47 NE9       30.11F
SALINA         PTSUNNY   88  62  41 E9        30.12F
TOPEKA BILLARD SUNNY     90  61  37 NE12      30.13F
TOPEKA FORBES  SUNNY     91  62  37 VRB5G16   30.13F
$$


USA.gov is the U.S. government's official web portal to all federal, state and local government web resources and services.